[[{"header":{"parameterUnit":"m.s-1","parameterCategory":1,"la1":30.2991,"la2":30.254,"lo1":-89.0895,"lo2":-89.0444,"dy":0.0017,"dx":0.0017,"nx":28,"ny":28,"refTime":"2024-06-13T21:00:00:Z","depth":0,"parameterNumber":2,"parameterNumberName":"U-component_of_WINDS"},"data":[0,0,0,0,0,0,0,0,0,0,0,0,0,0,0,0,0,0,0,0,0,0,0,0,0,0,0,0,0,0,0,0,0,0,0,0,0,0,0,0,0,0,0,0,0,0,0,0,0,0,0,0,0,0,0,0,0,0,1.3785,1.3785,0,1.3801,1.3801,1.3802,1.3744,1.3742,1.374,1.3738,1.3757,1.376,1.3762,0,0,0,0,0,0,0,0,0,0,0,0,0,1.3704,1.3706,1.3785,1.3785,1.3785,1.3801,1.3801,1.3802,1.3744,1.3742,1.374,1.3738,1.3757,1.3759,1.3762,0,0,0,0,0,0,0,0,0,0,0,0,0,1.3732,1.3707,1.3785,1.3758,1.3756,1.3801,1.3801,1.3802,1.3744,1.3742,1.3739,1.3737,1.3756,1.3759,1.3762,1.3834,0,0,1.3772,1.3773,0,0,0,0,0,0,0,0,1.373,1.3735,1.3762,1.376,1.3758,1.3768,1.378,1.3813,1.3745,1.3749,1.3738,1.3735,1.3763,1.3766,1.3774,1.3835,1.3836,1.3772,1.3774,1.3776,1.3776,0,0,0,0,0,0,0,1.3729,1.3734,1.3791,1.3762,1.376,1.3746,1.3747,1.3786,1.3771,1.3748,1.3744,1.3747,1.3761,1.3772,1.3774,1.3836,1.3772,1.3775,1.3777,1.3778,1.3956,1.3958,0,0,0,0,0,0,1.373,1.3733,1.3791,1.3792,1.3737,1.3749,1.3751,1.3767,1.377,1.3768,1.3749,1.3744,1.3767,1.3771,1.3775,1.3859,1.3776,1.3779,1.378,1.3953,1.3956,1.3959,0,0,0,0,0,0,1.3728,1.3736,1.379,1.3761,1.3767,1.3754,1.3773,1.3769,1.3779,1.377,1.3767,1.3762,1.3765,1.377,1.3819,1.3859,1.378,1.3783,1.395,1.3954,1.3958,1.4028,0,0,0,0,0,0,1.3726,1.3735,1.3763,1.3762,1.3769,1.3835,1.3775,1.3771,1.3784,1.3778,1.3782,1.378,1.3764,1.3815,1.3823,1.3862,1.3785,1.3946,1.3952,1.3956,1.4022,1.4034,1.4045,0,0,0,0,0,1.3724,1.3783,1.3765,1.3772,1.3803,1.3837,1.3841,1.382,1.3788,1.3815,1.3809,1.378,1.3853,1.3821,1.3829,1.3869,1.3943,1.395,1.3956,1.4017,1.4032,1.4044,0,0,0,0,0,0,1.379,1.3782,1.3762,1.3823,1.3831,1.3827,1.3861,1.3837,1.3855,1.3848,1.3822,1.3824,1.3877,1.3878,1.3842,1.3939,1.3893,1.3901,1.3937,1.395,1.3961,1.396,1.3788,0,0,0,0,0,1.3811,1.3839,1.3831,1.3886,1.3891,1.3875,1.389,1.3873,1.388,1.3884,1.3882,1.3891,1.3916,1.3933,1.3955,1.4022,1.4021,1.4053,1.4064,1.4074,1.4081,1.4116,1.413,1.398,1.398,1.398,0,0,1.3856,1.3856,1.3875,1.3899,1.3903,1.3933,1.3879,1.3913,1.3935,1.3889,1.3935,1.3934,1.3942,1.4,1.4026,1.4002,1.4122,1.4082,1.4089,1.4092,1.4124,1.4138,1.415,1.3984,1.3983,1.3983,0,0,1.3954,1.3956,1.4001,1.4006,1.4012,1.4001,1.4012,1.4012,1.4009,1.4054,1.402,1.4046,1.409,1.4097,1.4106,1.4204,1.4177,1.4212,1.427,1.4304,1.4316,1.4326,1.4361,1.4374,1.4219,1.4219,1.4219,0,1.4009,1.4052,1.4027,1.4063,1.4075,1.4033,1.4078,1.4084,1.4099,1.4107,1.4081,1.4133,1.4136,1.4195,1.4218,1.4227,1.4239,1.4212,1.4316,1.4326,1.4335,1.4368,1.4381,1.4223,1.4223,1.4223,1.4222,0,1.412,1.4151,1.4186,1.4199,1.4214,1.4255,1.4236,1.4254,1.4235,1.4227,1.4273,1.4275,1.4296,1.4309,1.4292,1.4365,1.435,1.432,1.4274,1.4354,1.4385,1.4397,1.4229,1.4228,1.4227,1.4226,0,0,1.4262,1.4259,1.4272,1.4277,1.4281,1.4304,1.4342,1.4362,1.4378,1.4388,1.442,1.4457,1.4428,1.4439,1.4422,1.4451,1.4528,1.4417,1.4417,1.4438,1.4608,1.4631,1.4646,1.451,1.4512,1.4514,1.4608,0,1.4358,1.4422,1.44,1.4466,1.4493,1.4453,1.4486,1.4492,1.4485,1.4507,1.4499,1.4526,1.4486,1.4492,1.452,1.4513,1.4562,1.4506,1.454,1.4541,1.4539,1.4662,1.4687,1.4776,1.4619,1.4621,1.4623,0,1.4479,1.4492,1.4561,1.4558,1.4569,1.4599,1.4615,1.4636,1.4641,1.4634,1.4645,1.4621,1.4658,1.461,1.4661,1.4623,1.4635,1.4634,1.4637,1.464,1.4588,1.4669,1.4803,1.4817,1.4641,1.464,1.4639,0,1.4575,1.4611,1.4656,1.4662,1.466,1.4682,1.4682,1.4684,1.4697,1.471,1.4718,1.4737,1.4747,1.4762,1.4743,1.471,1.4797,1.4748,1.4792,1.4792,1.4813,1.4812,1.4951,1.482,1.482,1.4819,1.4819,0,1.4685,1.4729,1.47,1.4728,1.4775,1.4748,1.4796,1.4791,1.4794,1.482,1.4786,1.4812,1.4785,1.4808,1.4794,1.4838,1.4843,1.4838,1.4834,1.4842,1.4842,1.485,1.4844,1.4823,1.4822,1.4821,1.4821,0,1.4802,1.4784,1.4831,1.4824,1.4823,1.4858,1.4852,1.4878,1.4867,1.4901,1.4908,1.4891,1.4917,1.4899,1.4925,1.4915,1.4973,1.496,1.4971,1.4968,1.5013,1.5009,1.5163,1.5181,1.5037,1.5039,1.504,0,1.4874,1.4907,1.4902,1.4917,1.4919,1.4943,1.4955,1.493,1.4944,1.4951,1.4976,1.4998,1.5014,1.5056,1.5047,1.5066,1.5054,1.5106,1.5057,1.5063,1.5055,1.5054,1.5057,1.5117,1.5119,1.512,1.5121,0,1.5004,1.4992,1.5011,1.5026,1.5042,1.5053,1.5061,1.5075,1.5049,1.5067,1.5091,1.5104,1.5129,1.5151,1.5167,1.5167,1.514,1.5136,1.5148,1.5156,1.5162,1.516,1.4999,1.5133,1.5132,1.5131,1.5131,1.513,1.5101,1.5127,1.5127,1.5149,1.5152,1.516,1.5183,1.5175,1.5194,1.5212,1.5196,1.5225,1.5228,1.5245,1.5249,1.5272,1.525,1.5267,1.5271,1.5276,1.5282,1.5157,1.5274,1.5274,1.5274,1.5273,1.5273,0,1.5228,1.5226,1.5246,1.5258,1.5275,1.5246,1.5253,1.5269,1.5295,1.53,1.5316,1.5343,1.5364,1.5356,1.5374,1.5394,1.5382,1.54,1.5399,1.5399,1.53,1.5289,1.5409,1.5409,1.5409,1.5409,1.5409,1.5409,1.5297,1.534,1.5328,1.5372,1.5369,1.5397,1.5404,1.5411,1.5414,1.5446,1.5463,1.5456,1.5456,1.5473,1.5491,1.5488,1.5496,1.5519,1.5512,1.542,1.5406,1.5394,1.5383,1.5521,1.5521,1.5609,1.5609,1.561]},{"header":{"parameterUnit":"m.s-1","parameterCategory":1,"la1":30.2991,"la2":30.254,"lo1":-89.0895,"lo2":-89.0444,"dy":0.0017,"dx":0.0017,"nx":28,"ny":28,"refTime":"2024-06-13T21:00:00:Z","depth":0,"parameterNumber":3,"parameterNumberName":"V-component_of_WINDS"},"data":[0,0,0,0,0,0,0,0,0,0,0,0,0,0,0,0,0,0,0,0,0,0,0,0,0,0,0,0,0,0,0,0,0,0,0,0,0,0,0,0,0,0,0,0,0,0,0,0,0,0,0,0,0,0,0,0,0,0,-2.0818,-2.0819,0,-2.0916,-2.0917,-2.0918,-2.0951,-2.095,-2.095,-2.0949,-2.105,-2.1053,-2.1056,0,0,0,0,0,0,0,0,0,0,0,0,0,-2.066,-2.0663,-2.0818,-2.0819,-2.082,-2.0916,-2.0917,-2.0919,-2.0951,-2.095,-2.095,-2.0949,-2.1049,-2.1053,-2.1057,0,0,0,0,0,0,0,0,0,0,0,0,0,-2.074,-2.0664,-2.0818,-2.0848,-2.0852,-2.0916,-2.0917,-2.0919,-2.0951,-2.095,-2.095,-2.0949,-2.1048,-2.1053,-2.1057,-2.1098,0,0,-2.1071,-2.1073,0,0,0,0,0,0,0,0,-2.0736,-2.0746,-2.0842,-2.0846,-2.085,-2.092,-2.0899,-2.0979,-2.0951,-2.0913,-2.0949,-2.0949,-2.1008,-2.1016,-2.1035,-2.1103,-2.1107,-2.1072,-2.1074,-2.1076,-2.1078,0,0,0,0,0,0,0,-2.073,-2.0742,-2.0857,-2.0844,-2.0849,-2.0857,-2.0868,-2.0914,-2.0963,-2.0916,-2.0919,-2.093,-2.101,-2.1031,-2.1038,-2.1109,-2.1071,-2.1076,-2.1078,-2.108,-2.1216,-2.1217,0,0,0,0,0,0,-2.0719,-2.0737,-2.0854,-2.086,-2.079,-2.086,-2.0872,-2.0899,-2.0962,-2.0971,-2.0931,-2.0931,-2.1023,-2.1032,-2.1042,-2.1094,-2.1076,-2.1081,-2.1083,-2.1215,-2.1216,-2.1217,0,0,0,0,0,0,-2.0716,-2.0729,-2.085,-2.0799,-2.0815,-2.0864,-2.0893,-2.0901,-2.0922,-2.0973,-2.0982,-2.0943,-2.1023,-2.1035,-2.1084,-2.1098,-2.1083,-2.1087,-2.1214,-2.1216,-2.1217,-2.1199,0,0,0,0,0,0,-2.0711,-2.0728,-2.0744,-2.0799,-2.0818,-2.089,-2.0894,-2.0903,-2.093,-2.0932,-2.0987,-2.0996,-2.1024,-2.1077,-2.1089,-2.1104,-2.1091,-2.1213,-2.1215,-2.1216,-2.1199,-2.12,-2.1201,0,0,0,0,0,-2.0705,-2.0735,-2.0744,-2.0758,-2.0838,-2.0891,-2.0901,-2.0932,-2.0931,-2.0947,-2.098,-2.0994,-2.1095,-2.1082,-2.1095,-2.1112,-2.1213,-2.1214,-2.1216,-2.1199,-2.12,-2.1201,0,0,0,0,0,0,-2.0679,-2.0743,-2.0754,-2.0802,-2.0841,-2.0896,-2.0917,-2.0933,-2.0973,-2.0973,-2.101,-2.1023,-2.1069,-2.1096,-2.108,-2.1156,-2.1155,-2.1159,-2.1136,-2.1138,-2.1139,-2.1131,-2.1094,0,0,0,0,0,-2.0679,-2.0716,-2.077,-2.0807,-2.0826,-2.0868,-2.0892,-2.0913,-2.0955,-2.0971,-2.1008,-2.1048,-2.1089,-2.1115,-2.1156,-2.1204,-2.1216,-2.1222,-2.1223,-2.1224,-2.1227,-2.1255,-2.1258,-2.1224,-2.1224,-2.1223,0,0,-2.0679,-2.0718,-2.0739,-2.0803,-2.0835,-2.0873,-2.0882,-2.0921,-2.095,-2.0978,-2.1026,-2.1054,-2.1102,-2.1151,-2.1174,-2.1174,-2.124,-2.1226,-2.1226,-2.1229,-2.1257,-2.126,-2.1263,-2.1225,-2.1225,-2.1224,0,0,-2.0698,-2.0732,-2.0767,-2.0799,-2.0848,-2.0877,-2.0885,-2.0939,-2.0959,-2.1008,-2.103,-2.1065,-2.1134,-2.1167,-2.1193,-2.1226,-2.1241,-2.1239,-2.1243,-2.127,-2.1273,-2.1275,-2.1287,-2.1291,-2.1242,-2.1242,-2.1242,0,-2.0692,-2.0749,-2.0783,-2.0821,-2.0849,-2.0876,-2.0912,-2.0942,-2.1002,-2.1021,-2.1021,-2.1109,-2.1143,-2.12,-2.1208,-2.1228,-2.124,-2.1232,-2.127,-2.1273,-2.1275,-2.1287,-2.1292,-2.1241,-2.1242,-2.1242,-2.1242,0,-2.0739,-2.0779,-2.0801,-2.0859,-2.0889,-2.0926,-2.0965,-2.0992,-2.1011,-2.1039,-2.109,-2.1132,-2.1181,-2.1197,-2.1215,-2.1257,-2.1256,-2.1262,-2.1261,-2.1278,-2.1289,-2.1294,-2.1241,-2.1241,-2.1241,-2.1241,0,0,-2.0743,-2.0819,-2.0827,-2.0853,-2.091,-2.0942,-2.0981,-2.103,-2.1052,-2.1093,-2.1126,-2.1186,-2.1192,-2.1222,-2.1245,-2.1268,-2.1292,-2.1272,-2.1274,-2.1274,-2.1341,-2.1335,-2.134,-2.1302,-2.1303,-2.1304,-2.1337,0,-2.0769,-2.0839,-2.0871,-2.0927,-2.0964,-2.0992,-2.1026,-2.1064,-2.1093,-2.1129,-2.116,-2.1201,-2.1207,-2.1225,-2.125,-2.1284,-2.1306,-2.1282,-2.1334,-2.1336,-2.1321,-2.1346,-2.134,-2.1368,-2.1342,-2.1342,-2.1343,0,-2.0809,-2.085,-2.0909,-2.0963,-2.098,-2.1009,-2.1057,-2.1091,-2.1136,-2.1155,-2.1189,-2.1211,-2.1254,-2.1251,-2.131,-2.1293,-2.1317,-2.1337,-2.1339,-2.1344,-2.134,-2.1351,-2.1378,-2.1382,-2.1351,-2.135,-2.1349,0,-2.0805,-2.0876,-2.092,-2.0942,-2.1006,-2.1026,-2.1054,-2.1098,-2.1126,-2.1168,-2.1186,-2.1233,-2.1258,-2.1294,-2.1328,-2.1323,-2.1385,-2.1384,-2.1402,-2.1401,-2.1413,-2.1411,-2.1443,-2.1429,-2.1429,-2.1429,-2.1429,0,-2.0831,-2.0866,-2.092,-2.0947,-2.0988,-2.1025,-2.1064,-2.1094,-2.1134,-2.1168,-2.1195,-2.1226,-2.127,-2.1308,-2.1335,-2.138,-2.1392,-2.1409,-2.1415,-2.1406,-2.1404,-2.1421,-2.142,-2.143,-2.143,-2.1429,-2.1429,0,-2.0833,-2.0871,-2.0921,-2.0978,-2.0993,-2.102,-2.1068,-2.1097,-2.1127,-2.117,-2.1182,-2.1229,-2.1275,-2.1313,-2.1373,-2.1392,-2.1439,-2.1447,-2.1423,-2.1426,-2.1441,-2.1439,-2.1485,-2.1493,-2.1474,-2.1474,-2.1474,0,-2.0847,-2.0874,-2.0934,-2.0958,-2.0986,-2.1025,-2.1053,-2.1091,-2.112,-2.1174,-2.1196,-2.1244,-2.1284,-2.1355,-2.1395,-2.1442,-2.1451,-2.1464,-2.1458,-2.1448,-2.1451,-2.1448,-2.1452,-2.1464,-2.1464,-2.1464,-2.1464,0,-2.0866,-2.0884,-2.0923,-2.097,-2.1003,-2.1041,-2.1081,-2.11,-2.1145,-2.1176,-2.1223,-2.1254,-2.1315,-2.1362,-2.1413,-2.1442,-2.1461,-2.1466,-2.1472,-2.1462,-2.1447,-2.1455,-2.1423,-2.1464,-2.1464,-2.1464,-2.1464,-2.1464,-2.0875,-2.0901,-2.0947,-2.099,-2.1024,-2.106,-2.1089,-2.1123,-2.1163,-2.1216,-2.1236,-2.1284,-2.133,-2.1401,-2.143,-2.1469,-2.1471,-2.148,-2.1483,-2.1484,-2.1483,-2.1441,-2.1478,-2.1478,-2.1478,-2.1478,-2.1478,0,-2.0895,-2.0926,-2.0966,-2.102,-2.1055,-2.107,-2.1114,-2.1142,-2.1184,-2.1225,-2.1264,-2.1319,-2.1365,-2.1409,-2.1457,-2.148,-2.149,-2.1491,-2.149,-2.1496,-2.1478,-2.1467,-2.1483,-2.1483,-2.1483,-2.1483,-2.1483,-2.1483,-2.091,-2.0955,-2.0978,-2.1041,-2.1072,-2.1119,-2.1143,-2.1177,-2.121,-2.127,-2.1308,-2.1337,-2.138,-2.1432,-2.1475,-2.1487,-2.1503,-2.1503,-2.1517,-2.1498,-2.1497,-2.1497,-2.1487,-2.1506,-2.1506,-2.1532,-2.1532,-2.1533]}]]